Location: Darmstadt
(49.8706°N, 8.6494°E)
Time: 07:08:01
(UTC+01:00)

CZ-2D R/B - Pass Details

Date: 31 October 2020
Orbit: 522 x 537 km, 97.4° (Epoch: 03 December)

Event Time Altitude Azimuth Distance (km) Brightness Sun altitude
Rises 18:00:34 0° 144° (SE) 2,648 6.6 -9.6°
Reaches altitude 10° 18:02:46 10° 135° (SE) 1,763 5.6 -10.0°
Maximum altitude 18:06:15 35° 69° (ENE) 855 3.8 -10.5°
Drops below altitude 10° 18:09:46 10° 3° (N) 1,772 5.8 -11.1°
Sets 18:11:59 0° 354° (N) 2,666 6.8 -11.4°
